TimeCDT,TemperatureF,Dew PointF,Humidity,Sea Level PressureIn,VisibilityMPH,Wind Direction,Wind SpeedMPH,Gust SpeedMPH,PrecipitationIn,Events,Conditions,WindDirDegrees,DateUTC
12:53 AM,60.1,57.0,90,29.78,10.0,East,5.8,-,N/A,,Clear,90,2013-06-10 05:53:00
1:53 AM,55.9,54.0,93,29.79,9.0,ENE,4.6,-,N/A,,Clear,60,2013-06-10 06:53:00
2:47 AM,53.6,51.8,94,29.81,1.8,Calm,Calm,-,N/A,,Clear,0,2013-06-10 07:47:00
2:53 AM,55.0,54.0,96,29.79,1.2,Calm,Calm,-,N/A,,Scattered Clouds,0,2013-06-10 07:53:00
2:58 AM,55.4,53.6,94,29.81,0.8,Calm,Calm,-,N/A,,Mist,0,2013-06-10 07:58:00
3:07 AM,55.4,55.4,100,29.81,1.8,Calm,Calm,-,N/A,,Mostly Cloudy,0,2013-06-10 08:07:00
3:11 AM,55.4,55.4,100,29.81,3.0,Calm,Calm,-,N/A,,Mostly Cloudy,0,2013-06-10 08:11:00
3:53 AM,57.9,55.9,93,29.80,6.0,North,3.5,-,N/A,,Overcast,360,2013-06-10 08:53:00
4:53 AM,59.0,57.0,93,29.81,7.0,Calm,Calm,-,N/A,,Overcast,0,2013-06-10 09:53:00
5:53 AM,59.0,57.0,93,29.81,4.0,Calm,Calm,-,N/A,,Overcast,0,2013-06-10 10:53:00
6:45 AM,60.8,57.2,88,29.84,2.5,NNW,3.5,-,N/A,,Overcast,330,2013-06-10 11:45:00
6:53 AM,60.1,57.9,93,29.83,3.0,Calm,Calm,-,N/A,,Overcast,0,2013-06-10 11:53:00
7:53 AM,63.0,59.0,87,29.82,5.0,Calm,Calm,-,N/A,,Mostly Cloudy,0,2013-06-10 12:53:00
8:19 AM,64.4,59.0,83,29.84,5.0,Calm,Calm,-,N/A,,Haze,0,2013-06-10 13:19:00
8:35 AM,64.4,59.0,83,29.84,7.0,Calm,Calm,-,N/A,,Mostly Cloudy,0,2013-06-10 13:35:00
8:53 AM,66.9,60.1,79,29.83,7.0,Calm,Calm,-,N/A,,Overcast,0,2013-06-10 13:53:00
9:20 AM,66.2,60.8,83,29.87,7.0,NW,6.9,-,N/A,,Scattered Clouds,320,2013-06-10 14:20:00
9:34 AM,66.2,60.8,83,29.88,8.0,West,8.1,-,N/A,,Mostly Cloudy,280,2013-06-10 14:34:00
9:41 AM,66.2,60.8,83,29.88,8.0,WNW,6.9,-,N/A,,Mostly Cloudy,290,2013-06-10 14:41:00
9:53 AM,66.0,60.1,81,29.86,8.0,WNW,8.1,-,N/A,,Overcast,290,2013-06-10 14:53:00
10:15 AM,66.2,60.8,83,29.88,9.0,WNW,8.1,-,N/A,,Overcast,300,2013-06-10 15:15:00
10:53 AM,64.9,60.1,84,29.88,9.0,NW,8.1,-,N/A,,Overcast,310,2013-06-10 15:53:00
11:39 AM,68.0,60.8,78,29.89,10.0,Variable,4.6,-,N/A,,Overcast,0,2013-06-10 16:39:00
11:53 AM,66.9,60.1,79,29.87,10.0,NNW,3.5,-,N/A,,Overcast,330,2013-06-10 16:53:00
12:21 PM,66.2,60.8,83,29.90,10.0,NNW,9.2,-,N/A,,Overcast,330,2013-06-10 17:21:00
12:37 PM,69.8,60.8,73,29.90,10.0,NW,10.4,-,N/A,,Mostly Cloudy,320,2013-06-10 17:37:00
12:53 PM,70.0,60.1,71,29.88,10.0,WNW,9.2,-,N/A,,Scattered Clouds,300,2013-06-10 17:53:00
1:11 PM,69.8,60.8,73,29.90,10.0,WNW,5.8,-,N/A,,Mostly Cloudy,300,2013-06-10 18:11:00
1:43 PM,69.8,60.8,73,29.89,10.0,WSW,4.6,-,N/A,,Scattered Clouds,240,2013-06-10 18:43:00
1:53 PM,70.0,60.1,71,29.87,10.0,SSW,3.5,-,N/A,,Partly Cloudy,210,2013-06-10 18:53:00
2:20 PM,69.8,60.8,73,29.87,10.0,Calm,Calm,-,N/A,,Mostly Cloudy,0,2013-06-10 19:20:00
2:53 PM,71.1,57.9,63,29.86,10.0,SSE,3.5,-,N/A,,Scattered Clouds,160,2013-06-10 19:53:00
3:53 PM,73.9,60.1,62,29.86,10.0,NNW,4.6,-,N/A,,Scattered Clouds,330,2013-06-10 20:53:00
4:53 PM,73.9,59.0,59,29.84,10.0,WSW,5.8,-,N/A,,Mostly Cloudy,240,2013-06-10 21:53:00
5:53 PM,73.9,57.9,57,29.83,10.0,Calm,Calm,-,N/A,,Clear,0,2013-06-10 22:53:00
6:53 PM,75.9,59.0,56,29.84,10.0,Calm,Calm,-,N/A,,Clear,0,2013-06-10 23:53:00
7:53 PM,75.0,57.9,55,29.83,9.0,Calm,Calm,-,N/A,,Clear,0,2013-06-11 00:53:00
8:53 PM,70.0,62.1,76,29.83,10.0,Calm,Calm,-,N/A,,Clear,0,2013-06-11 01:53:00
9:53 PM,64.9,60.1,84,29.85,10.0,Calm,Calm,-,N/A,,Clear,0,2013-06-11 02:53:00
10:53 PM,63.0,60.1,90,29.88,7.0,Calm,Calm,-,N/A,,Clear,0,2013-06-11 03:53:00
11:53 PM,61.0,57.9,90,29.88,10.0,South,4.6,-,N/A,,Clear,180,2013-06-11 04:53:00